Total_Precipitation_Accumulation
2.50 2.48 2.39 2.44 2.41 2.36 2.22 2.05 1.91 1.84 1.70 1.57 1.47 1.50 1.51 1.45 1.43 1.46 1.45 1.51 1.58 1.61 1.65 1.75 1.85 1.90 2.00 2.04 2.09 2.12 2.21 2.25 2.22 1.99 1.85 1.81 1.79 1.78 1.80 1.66 1.55 1.48 1.38
2.20 2.27 2.35 2.38 2.28 2.15 1.95 1.83 1.71 1.59 1.44 1.38 1.34 1.40 1.38 1.28 1.27 1.24 1.19 1.23 1.31 1.42 1.50 1.56 1.64 1.66 1.73 1.71 1.80 1.86 1.88 1.95 1.98 2.02 2.04 1.97 1.89 1.85 1.78 1.62 1.39 1.23 1.19
1.99 1.99 2.15 2.20 2.07 1.92 1.76 1.68 1.58 1.45 1.38 1.38 1.34 1.32 1.29 1.20 1.12 1.08 1.07 1.07 1.06 1.15 1.26 1.31 1.38 1.39 1.38 1.35 1.41 1.43 1.52 1.62 1.80 1.88 1.90 1.95 1.93 1.93 1.97 1.70 1.48 1.43 1.11
1.99 2.14 2.16 2.08 1.94 1.85 1.64 1.46 1.36 1.27 1.31 1.37 1.31 1.22 1.11 1.05 0.99 1.02 1.05 1.04 1.00 1.01 1.04 1.09 1.11 1.06 1.04 1.06 1.09 1.15 1.29 1.53 1.70 1.75 1.68 1.71 1.79 1.77 1.93 1.82 1.67 1.54 1.31
1.95 1.95 1.90 1.82 1.75 1.73 1.65 1.50 1.34 1.22 1.17 1.23 1.15 1.08 1.02 0.92 0.86 0.89 0.93 0.93 0.92 0.92 0.94 0.94 0.92 0.89 0.90 0.88 0.85 0.96 1.15 1.40 1.52 1.59 1.60 1.56 1.56 1.62 1.69 1.61 1.59 1.58 1.45
1.69 1.68 1.60 1.58 1.63 1.59 1.56 1.45 1.35 1.26 1.19 1.19 1.13 1.02 0.91 0.77 0.80 0.81 0.76 0.79 0.86 0.93 0.91 0.84 0.79 0.76 0.74 0.75 0.76 0.85 0.98 1.10 1.22 1.35 1.40 1.42 1.43 1.48 1.59 1.59 1.58 1.60 1.57
1.53 1.47 1.47 1.47 1.44 1.42 1.29 1.23 1.27 1.30 1.21 1.14 1.03 0.92 0.85 0.80 0.74 0.69 0.74 0.81 0.88 0.96 0.97 0.96 0.81 0.66 0.72 0.76 0.79 0.84 0.89 0.92 1.01 1.18 1.28 1.28 1.35 1.48 1.65 1.64 1.64 1.62 1.56
1.46 1.39 1.32 1.34 1.30 1.27 1.25 1.23 1.23 1.23 1.17 1.12 1.03 0.92 0.84 0.75 0.72 0.70 0.73 0.76 0.87 0.91 0.91 0.92 0.92 0.86 0.80 0.84 0.83 0.86 0.90 0.94 0.99 1.06 1.21 1.24 1.21 1.33 1.54 1.55 1.55 1.51 1.44
1.26 1.22 1.13 1.16 1.22 1.23 1.21 1.27 1.23 1.14 1.10 1.03 0.97 0.93 0.87 0.76 0.70 0.67 0.71 0.79 0.86 0.81 0.74 0.73 0.72 0.72 0.72 0.78 0.85 0.93 0.95 0.95 0.85 0.89 0.94 1.02 1.14 1.22 1.30 1.35 1.46 1.59 1.54
1.12 1.11 1.02 1.03 1.10 1.17 1.19 1.22 1.13 1.05 1.01 0.90 0.87 0.91 0.89 0.83 0.71 0.63 0.68 0.71 0.76 0.73 0.70 0.68 0.66 0.63 0.61 0.60 0.70 0.89 1.01 0.98 0.91 0.90 1.01 1.16 1.23 1.26 1.23 1.31 1.43 1.53 1.52
0.96 1.03 1.03 1.01 1.03 1.04 1.06 1.11 1.06 0.99 0.96 0.94 0.92 0.94 0.93 0.86 0.73 0.63 0.63 0.62 0.64 0.66 0.69 0.70 0.68 0.60 0.52 0.52 0.62 0.77 0.85 0.82 0.90 1.11 1.33 1.38 1.35 1.29 1.22 1.20 1.34 1.47 1.52
0.94 1.06 1.08 1.05 0.94 0.92 1.06 1.10 1.04 0.98 0.93 0.95 0.95 0.95 0.95 0.91 0.77 0.65 0.59 0.58 0.58 0.61 0.65 0.65 0.63 0.58 0.51 0.52 0.57 0.66 0.69 0.79 1.02 1.26 1.41 1.38 1.20 1.07 1.06 1.04 1.08 1.25 1.38
0.99 1.06 1.08 1.02 0.99 0.98 1.02 1.02 0.96 0.91 0.84 0.83 0.84 0.87 0.87 0.79 0.72 0.64 0.59 0.55 0.55 0.57 0.57 0.56 0.56 0.59 0.61 0.69 0.73 0.72 0.78 0.96 1.17 1.27 1.28 1.19 1.07 1.01 1.00 1.00 0.98 1.11 1.18
1.03 1.01 1.02 1.03 1.02 0.96 0.90 0.86 0.84 0.81 0.76 0.73 0.74 0.76 0.72 0.68 0.61 0.53 0.51 0.51 0.51 0.55 0.56 0.61 0.69 0.76 0.79 0.82 0.87 0.94 0.98 1.03 1.04 1.12 1.11 1.03 0.94 0.95 0.97 0.94 0.97 1.02 1.13
0.96 0.89 0.88 0.92 0.90 0.85 0.74 0.68 0.67 0.62 0.55 0.53 0.54 0.55 0.54 0.53 0.52 0.48 0.46 0.48 0.46 0.49 0.55 0.69 0.86 0.93 0.96 0.94 0.92 0.94 0.97 0.97 0.97 0.96 0.93 0.90 0.90 0.90 0.89 0.86 0.91 0.93 1.05
0.85 0.79 0.76 0.79 0.77 0.71 0.66 0.61 0.55 0.44 0.41 0.39 0.37 0.39 0.39 0.43 0.42 0.36 0.39 0.42 0.42 0.50 0.58 0.80 0.94 0.97 0.99 0.89 0.83 0.80 0.81 0.81 0.78 0.79 0.81 0.83 0.86 0.85 0.86 0.83 0.85 0.90 0.99
0.77 0.77 0.67 0.64 0.67 0.65 0.60 0.60 0.63 0.50 0.40 0.37 0.36 0.39 0.40 0.40 0.39 0.38 0.36 0.41 0.46 0.51 0.58 0.71 0.82 0.90 0.90 0.80 0.73 0.73 0.75 0.73 0.71 0.71 0.76 0.79 0.80 0.80 0.83 0.85 0.85 0.90 0.93
0.64 0.60 0.57 0.58 0.56 0.53 0.52 0.51 0.54 0.62 0.63 0.57 0.46 0.41 0.41 0.44 0.44 0.41 0.39 0.46 0.53 0.53 0.59 0.65 0.70 0.77 0.79 0.75 0.71 0.72 0.73 0.72 0.71 0.71 0.71 0.74 0.77 0.78 0.76 0.77 0.79 0.80 0.85
0.50 0.46 0.45 0.43 0.43 0.44 0.46 0.45 0.47 0.52 0.58 0.61 0.60 0.51 0.46 0.50 0.51 0.49 0.46 0.47 0.53 0.57 0.59 0.60 0.61 0.65 0.66 0.67 0.69 0.69 0.68 0.67 0.67 0.67 0.67 0.71 0.72 0.72 0.73 0.69 0.67 0.67 0.76
0.46 0.40 0.36 0.34 0.34 0.35 0.37 0.40 0.45 0.46 0.47 0.53 0.56 0.49 0.47 0.54 0.58 0.56 0.48 0.46 0.51 0.55 0.53 0.57 0.59 0.60 0.59 0.57 0.56 0.58 0.61 0.60 0.57 0.58 0.63 0.68 0.72 0.72 0.69 0.63 0.64 0.69 0.74
0.37 0.35 0.31 0.29 0.32 0.33 0.34 0.36 0.40 0.38 0.42 0.46 0.43 0.40 0.46 0.52 0.56 0.54 0.52 0.51 0.55 0.58 0.60 0.58 0.56 0.57 0.53 0.50 0.52 0.54 0.55 0.55 0.54 0.55 0.60 0.64 0.65 0.63 0.60 0.56 0.54 0.56 0.60
0.32 0.33 0.28 0.26 0.28 0.31 0.33 0.34 0.33 0.34 0.36 0.38 0.38 0.37 0.43 0.47 0.52 0.54 0.54 0.56 0.58 0.59 0.59 0.58 0.56 0.54 0.52 0.50 0.50 0.51 0.50 0.52 0.57 0.59 0.58 0.57 0.55 0.51 0.48 0.45 0.44 0.45 0.50
0.27 0.29 0.28 0.27 0.27 0.29 0.32 0.34 0.32 0.29 0.31 0.33 0.34 0.35 0.36 0.42 0.48 0.53 0.55 0.56 0.61 0.60 0.57 0.56 0.53 0.51 0.49 0.46 0.45 0.45 0.47 0.47 0.47 0.48 0.51 0.51 0.48 0.46 0.42 0.42 0.43 0.44 0.47
0.25 0.27 0.27 0.24 0.26 0.28 0.30 0.30 0.27 0.25 0.29 0.33 0.36 0.37 0.38 0.41 0.44 0.51 0.56 0.59 0.60 0.59 0.54 0.48 0.46 0.44 0.43 0.42 0.40 0.37 0.38 0.38 0.36 0.35 0.39 0.41 0.40 0.40 0.39 0.40 0.41 0.43 0.46
0.23 0.24 0.22 0.21 0.24 0.28 0.29 0.26 0.25 0.25 0.26 0.31 0.35 0.38 0.38 0.39 0.43 0.49 0.56 0.60 0.60 0.55 0.46 0.41 0.38 0.36 0.37 0.36 0.33 0.31 0.33 0.35 0.32 0.31 0.35 0.39 0.35 0.37 0.40 0.42 0.44 0.42 0.42
0.21 0.23 0.22 0.25 0.26 0.24 0.24 0.24 0.23 0.24 0.27 0.29 0.32 0.35 0.37 0.41 0.44 0.46 0.47 0.51 0.54 0.51 0.42 0.34 0.31 0.31 0.32 0.33 0.30 0.29 0.29 0.29 0.29 0.32 0.34 0.37 0.37 0.37 0.37 0.40 0.42 0.42 0.44